Weather History for KNUQ - May, 2012

Change the Weather History Date:

Monday, May 21, 2012

  Actual Average Record
Temperature  
Mean Temperature 62 °F 63 °F  
Max Temperature 70 °F 73 °F 96 °F (2000)
Min Temperature 53 °F 54 °F 44 °F (1974)
Degree Days  
Heating Degree Days 3    
Month to date heating degree days 62  
Since 1 July heating degree days 1979  
Cooling Degree Days 0    
Month to date cooling degree days 20  
Year to date cooling degree days 41  
Growing Degree Days 12 (Base 50)    
Moisture  
Dew Point 53 °F    
Average Humidity 74    
Maximum Humidity 90    
Minimum Humidity 57    
Precipitation  
Precipitation 0.00 in 0.01 in 0.14 in (1946)
Month to date precipitation T 0.38  
Year to date precipitation 5.43 9.44  
Since 1 July precipitation 7.20 14.49  
Sea Level Pressure  
Sea Level Pressure 30.10 in    
Wind  
Wind Speed 9 mph (North)    
Max Wind Speed 22 mph    
Max Gust Speed 24 mph    
Visibility 10 miles    
Events      
T = Trace of Precipitation, MM = Missing Value Source: NWS Daily Summary

Daily Weather History Graph

Daily Weather History Graph

Search for Another Location

Airport or City:

Trip Planner

Search our weather history database for the weather conditions in past years. The results will help you decide how hot, cold, wet, or windy it might be!

Date:

Astronomy

May. 21, 2012 Rise Set
Actual Time 5:54 AM PDT 8:15 PM PDT
Civil Twilight 5:24 AM PDT 8:45 PM PDT
Nautical Twilight 4:47 AM PDT 9:22 PM PDT
Astronomical Twilight 4:07 AM PDT 10:02 PM PDT
Moon 6:21 AM PDT (5/21) 9:10 PM PDT (5/21)
Length of Visible Light 15h 21m
Length of Day
14h 21m
New Moon, 1% of the Moon is Illuminated
May 21
New Moon
May 28
First Quarter
Jun 4
Full
Jun 11
Last Quarter
Jun 19
New

Hourly Weather History & Observations

Time (PDT) Temp. Dew Point Humidity Pressure Visibility Wind Dir Wind Speed Gust Speed Precip Events Conditions
12:56 AM 57.0 °F 50.0 °F 77% 30.06 in 10.0 mi NNW 10.4 mph - N/A   Clear
1:56 AM 57.0 °F 48.9 °F 74% 30.05 in 10.0 mi NW 3.5 mph - N/A   Clear
2:56 AM 55.9 °F 50.0 °F 80% 30.05 in 10.0 mi North 3.5 mph - N/A   Clear
3:56 AM 55.0 °F 48.9 °F 80% 30.05 in 10.0 mi Calm Calm - N/A   Clear
4:56 AM 53.1 °F 48.0 °F 83% 30.06 in 10.0 mi ESE 3.5 mph - N/A   Clear
5:56 AM 54.0 °F 50.0 °F 86% 30.06 in 10.0 mi SE 4.6 mph - N/A   Clear
6:56 AM 55.9 °F 51.1 °F 84% 30.08 in 10.0 mi Calm Calm - N/A   Clear
7:56 AM 60.1 °F 51.1 °F 72% 30.09 in 10.0 mi NNE 4.6 mph - N/A   Partly Cloudy
8:56 AM 61.0 °F 51.1 °F 70% 30.10 in 10.0 mi NNE 8.1 mph - N/A   Clear
9:56 AM 63.0 °F 53.1 °F 70% 30.11 in 10.0 mi NNE 8.1 mph - N/A   Clear
10:56 AM 63.0 °F 53.1 °F 70% 30.12 in 10.0 mi North 10.4 mph - N/A   Clear
11:56 AM 64.9 °F 54.0 °F 68% 30.12 in 10.0 mi NNE 9.2 mph - N/A   Clear
12:56 PM 66.9 °F 54.0 °F 63% 30.12 in 10.0 mi NNE 8.1 mph - N/A   Clear
1:56 PM 69.1 °F 55.0 °F 61% 30.11 in 10.0 mi NNW 10.4 mph - N/A   Clear
2:56 PM 69.1 °F 55.0 °F 61% 30.10 in 10.0 mi North 15.0 mph - N/A   Clear
3:56 PM 70.0 °F 53.1 °F 55% 30.10 in 10.0 mi NNW 18.4 mph - N/A   Clear
4:56 PM 68.0 °F 54.0 °F 61% 30.09 in 10.0 mi NNW 19.6 mph 23.0 mph N/A   Clear
5:56 PM 66.0 °F 54.0 °F 65% 30.09 in 10.0 mi NNW 17.3 mph 23.0 mph N/A   Clear
6:56 PM 64.9 °F 55.0 °F 70% 30.09 in 10.0 mi North 18.4 mph - N/A   Clear
7:56 PM 63.0 °F 55.0 °F 75% 30.10 in 10.0 mi NNW 15.0 mph - N/A   Clear
8:56 PM 62.1 °F 55.9 °F 80% 30.12 in 10.0 mi NNW 8.1 mph - N/A   Clear
9:56 PM 61.0 °F 57.0 °F 87% 30.13 in 10.0 mi North 5.8 mph - N/A   Scattered Clouds
10:03 PM 62.6 °F 57.2 °F 82% 30.13 in 10.0 mi North 8.1 mph - N/A   Mostly Cloudy
10:56 PM 62.1 °F 57.0 °F 84% 30.14 in 10.0 mi North 9.2 mph - N/A   Overcast
11:27 PM 62.6 °F 57.2 °F 82% 30.12 in 10.0 mi North 8.1 mph - N/A   Overcast
11:56 PM 62.1 °F 55.9 °F 80% 30.13 in 10.0 mi NNW 9.2 mph - N/A   Overcast